All
Porta Westfalica Airport EDVY Weather
There is no TAF data available at EDVY or any nearby airports.
There is no METAR data available at EDVY. Showing METAR data for ETHB (10 mi E).
Recent ETHB METAR history (no data for EDVY)
| Date | Time (CEST) | Flight Rules | Wind Dir. | Speed | Type | Height AGL (ft) | Visibility | Temp (°C) | Temp (°F) | Dew Point (°C) | Dew Point (°F) | Rel. Humid. | Pressure | Density Altitude | Remarks |
|---|---|---|---|---|---|---|---|---|---|---|---|---|---|---|---|
| 03-May | 08:20AM | VFR | 90° | 3 kt | 10000 meters | 15° | 59° | 12° | 53° | 82% | 1012 mb | 266 ft | |||
| 03-May | 07:20AM | VFR | 310° | 3 kt | 10000 meters | 14° | 57° | 11° | 51° | 82% | 1012 mb | 146 ft | |||
| 03-May | 06:20AM | VFR | 140° | 5 kt | 10000 meters | 11° | 51° | 10° | 50° | 94% | 1012 mb | -214 ft | |||
| 03-May | 05:20AM | VFR | 90° | 2 kt | 10000 meters | 11° | 51° | 10° | 50° | 94% | 1012 mb | -214 ft | |||
| 03-May | 04:20AM | VFR | 150° | 2 kt | 10000 meters | 12° | 53° | 11° | 51° | 94% | 1012 mb | -94 ft | |||
| 03-May | 03:20AM | VFR | 160° | 3 kt | 10000 meters | 13° | 55° | 12° | 53° | 94% | 1013 mb | -4 ft | |||
| 03-May | 02:20AM | VFR | 330° | 1 kt | 10000 meters | 15° | 59° | 12° | 53° | 82% | 1013 mb | 236 ft | |||
| 03-May | 01:20AM | VFR | 80° | 3 kt | 10000 meters | 16° | 60° | 11° | 51° | 72% | 1014 mb | 327 ft | |||
| 03-May | 12:20AM | VFR | 280° | 9 kt | 10000 meters | 18° | 64° | 11° | 51° | 64% | 1015 mb | 537 ft | |||
| 02-May | 11:20PM | VFR | 270° | 6 kt | 10000 meters | 17° | 62° | 11° | 51° | 68% | 1014 mb | 447 ft | |||
| 02-May | 10:20PM | VFR | 160° | 5 kt | 10000 meters | 17° | 62° | 11° | 51° | 68% | 1014 mb | 447 ft | |||
| 02-May | 09:20PM | VFR | 170° | 3 kt | 10000 meters | 18° | 64° | 11° | 51° | 64% | 1014 mb | 567 ft | |||
| 02-May | 08:20PM | VFR | 140° | 2 kt | 10000 meters | 21° | 69° | 11° | 51° | 53% | 1014 mb | 927 ft | |||
| 02-May | 07:20PM | VFR | 290° | 6 kt | 10000 meters | 24° | 75° | 9° | 48° | 38% | 1014 mb | 1,287 ft | |||
| 02-May | 06:20PM | VFR | 270° | 9 kt | 10000 meters | 25° | 77° | 8° | 46° | 34% | 1015 mb | 1,377 ft | |||
| 02-May | 05:20PM | VFR | 250° | 9 kt | 10000 meters | 25° | 77° | 8° | 46° | 34% | 1015 mb | 1,377 ft | |||
| 02-May | 04:20PM | VFR | 250° | 11 kt | 10000 meters | 26° | 78° | 7° | 44° | 30% | 1015 mb | 1,497 ft | |||
| 02-May | 03:20PM | VFR | 220° | 9 kt | 10000 meters | 26° | 78° | 6° | 42° | 28% | 1016 mb | 1,468 ft | |||
| 02-May | 02:20PM | VFR | 190° | 8 kt | 10000 meters | 25° | 77° | 5° | 41° | 28% | 1017 mb | 1,318 ft | |||
| 02-May | 01:20PM | VFR | 190° | 7 kt | 10000 meters | 24° | 75° | 5° | 41° | 29% | 1018 mb | 1,168 ft | |||
| 02-May | 12:20PM | VFR | 190° | 8 kt | 10000 meters | 23° | 73° | 5° | 41° | 31% | 1018 mb | 1,048 ft | |||
| 02-May | 11:20AM | VFR | 180° | 8 kt | 10000 meters | 22° | 71° | 4° | 39° | 31% | 1019 mb | 899 ft | |||
| 02-May | 10:20AM | VFR | 180° | 13 kt | 10000 meters | 20° | 68° | 5° | 41° | 37% | 1019 mb | 659 ft | |||
| 02-May | 09:20AM | VFR | 180° | 12 kt | 10000 meters | 18° | 64° | 4° | 39° | 39% | 1019 mb | 419 ft |
Login
| Your browser is unsupported. upgrade your browser |
